TimeCST,TemperatureF,Dew PointF,Humidity,Sea Level PressureIn,VisibilityMPH,Wind Direction,Wind SpeedMPH,Gust SpeedMPH,PrecipitationIn,Events,Conditions,WindDirDegrees,DateUTC
12:53 AM,45.0,33.1,63,30.28,10.0,South,5.8,-,N/A,,Clear,170,2012-11-29 06:53:00
1:53 AM,44.1,33.1,65,30.27,10.0,SSE,4.6,-,N/A,,Clear,160,2012-11-29 07:53:00
2:53 AM,42.1,33.1,70,30.27,10.0,SSE,5.8,-,N/A,,Clear,150,2012-11-29 08:53:00
3:53 AM,42.1,34.0,73,30.27,10.0,SSE,4.6,-,N/A,,Clear,160,2012-11-29 09:53:00
4:53 AM,41.0,34.0,76,30.25,10.0,SSE,4.6,-,N/A,,Clear,150,2012-11-29 10:53:00
5:53 AM,39.9,34.0,79,30.26,10.0,South,3.5,-,N/A,,Clear,180,2012-11-29 11:53:00
6:53 AM,39.0,34.0,82,30.27,10.0,SSE,4.6,-,N/A,,Clear,150,2012-11-29 12:53:00
7:53 AM,41.0,36.0,82,30.28,10.0,SSE,5.8,-,N/A,,Clear,160,2012-11-29 13:53:00
8:53 AM,48.9,39.9,71,30.28,10.0,South,10.4,-,N/A,,Clear,170,2012-11-29 14:53:00
9:53 AM,55.9,39.9,55,30.28,10.0,South,13.8,-,N/A,,Clear,170,2012-11-29 15:53:00
10:53 AM,57.9,42.1,56,30.27,10.0,South,11.5,-,N/A,,Clear,180,2012-11-29 16:53:00
11:53 AM,62.1,39.9,44,30.23,10.0,SSE,11.5,18.4,N/A,,Clear,150,2012-11-29 17:53:00
12:53 PM,63.0,39.9,43,30.21,10.0,South,11.5,-,N/A,,Clear,180,2012-11-29 18:53:00
1:53 PM,64.0,41.0,43,30.17,10.0,South,11.5,-,N/A,,Clear,170,2012-11-29 19:53:00
2:53 PM,66.0,41.0,40,30.14,10.0,SSE,11.5,-,N/A,,Clear,150,2012-11-29 20:53:00
3:53 PM,66.0,39.9,38,30.13,10.0,SSE,13.8,-,N/A,,Clear,160,2012-11-29 21:53:00
4:53 PM,64.0,41.0,43,30.14,10.0,SSE,9.2,-,N/A,,Clear,160,2012-11-29 22:53:00
5:53 PM,59.0,41.0,51,30.13,10.0,SE,5.8,-,N/A,,Overcast,140,2012-11-29 23:53:00
6:53 PM,55.0,39.9,57,30.14,10.0,SSE,3.5,-,N/A,,Clear,150,2012-11-30 00:53:00
7:53 PM,54.0,42.1,64,30.15,10.0,SSE,5.8,-,N/A,,Mostly Cloudy,150,2012-11-30 01:53:00
8:53 PM,55.0,45.0,69,30.14,10.0,SSE,6.9,-,N/A,,Clear,160,2012-11-30 02:53:00
9:53 PM,57.0,46.9,69,30.14,10.0,SSE,9.2,-,N/A,,Clear,160,2012-11-30 03:53:00
10:53 PM,55.9,48.0,75,30.15,10.0,South,6.9,-,N/A,,Clear,170,2012-11-30 04:53:00
11:53 PM,55.0,48.0,77,30.15,10.0,South,8.1,-,N/A,,Clear,180,2012-11-30 05:53:00